Location: Chrząstowo
(52.0654°N, 17.1290°E)
Time: 01:15:31
(UTC+01:00)

Envisat - Pass Details

Date: 17 December 2019
Orbit: 764 x 766 km, 98.1° (Epoch: 26 January)

Event Time Altitude Azimuth Distance (km) Brightness Sun altitude
Rises 06:17:10 0° 18° (NNE) 3,247 6.2 -13.8°
Reaches altitude 10° 06:19:35 10° 25° (NNE) 2,316 5.5 -13.5°
Maximum altitude 06:24:29 45° 98° (E) 1,034 4.2 -12.8°
Drops below altitude 10° 06:29:20 10° 171° (S) 2,298 5.9 -12.1°
Sets 06:31:43 0° 178° (S) 3,219 6.6 -11.8°
